Date String (YYYY-MM-DD hh:mm:ss) UTC,Instrument flags,Ambient pressure (hPa),Sample flow (lpm),Bypass flow (lpm),Sample temperature (°C),Ambient temperature (°C),ASC tube jacket temperature (°C),LED temperature (°C),Box temperature (°C),Sample RH (%),Span deviation,Mass concentration (μg/m³),Mass concentration (μg/m³),Mass concentration (μg/m³)
DateTimeUTC,F1_M11,P_M11,Q1_M11,Q2_M11,T1_M11,T2_M11,T3_M11,T4_M11,T5_M11,U1_M11,ZSPAN_M11,X0_M11,X2_M11,X1_M11
2022-10-27 21:00:00,,0826.2,5.01,0.00,24.2,23.2,00.0,32.8,26.2,19.7,0000.0,0003.80,0002.64,0002.11
2022-10-27 21:01:00,,0826.1,5.00,0.00,24.2,23.2,00.0,32.8,26.3,19.3,0000.0,0003.78,0002.62,0002.12
2022-10-27 21:02:00,,0825.9,5.00,0.00,24.2,23.2,00.0,32.9,26.3,19.9,0000.0,0003.75,0002.61,0002.13
2022-10-27 21:03:00,,0825.9,5.00,0.00,24.2,23.2,00.0,32.9,26.3,19.7,0000.0,0003.67,0002.59,0002.13
2022-10-27 21:04:00,,0825.8,5.01,0.00,24.3,23.2,00.0,32.9,26.3,19.3,0000.0,0003.59,0002.57,0002.14
2022-10-27 21:05:00,,0825.9,4.99,0.00,24.3,23.3,00.0,32.9,26.3,19.1,0000.0,0003.53,0002.56,0002.16
2022-10-27 21:06:00,,0825.9,5.00,0.00,24.3,23.3,00.0,32.9,26.3,18.9,0000.0,0003.49,0002.55,0002.16
2022-10-27 21:07:00,,0825.9,4.99,0.00,24.3,23.3,00.0,33.0,26.4,18.9,0000.0,0003.50,0002.57,0002.18
2022-10-27 21:08:00,,0825.9,5.00,0.00,24.3,23.3,00.0,33.0,26.4,19.1,0000.0,0004.12,0002.58,0002.20
2022-10-27 21:09:00,,0825.9,5.00,0.00,24.4,23.3,00.0,33.0,26.4,18.9,0000.0,0004.81,0002.55,0002.21
2022-10-27 21:10:00,,0825.9,5.00,0.00,24.4,23.4,00.0,33.0,26.4,19.2,0000.0,0005.76,0002.53,0002.22
2022-10-27 21:11:00,,0826.0,5.00,0.00,24.4,23.4,00.0,33.0,26.5,18.6,0000.0,0006.58,0002.55,0002.23
2022-10-27 21:12:00,,0826.0,4.99,0.00,24.4,23.4,00.0,33.0,26.5,18.6,0000.0,0006.88,0002.56,0002.25
2022-10-27 21:13:00,,0825.9,5.00,0.00,24.4,23.4,00.0,33.1,26.5,18.4,0000.0,0007.22,0002.57,0002.26
2022-10-27 21:14:00,,0825.9,5.00,0.00,24.5,23.4,00.0,33.1,26.5,18.6,0000.0,0007.43,0002.59,0002.27
2022-10-27 21:15:00,,0825.9,5.00,0.00,24.5,23.5,00.0,33.1,26.5,18.7,0000.0,0007.91,0002.58,0002.28
2022-10-27 21:16:00,,0825.9,5.00,0.00,24.5,23.5,00.0,33.1,26.5,18.8,0000.0,0007.90,0002.58,0002.28
2022-10-27 21:17:00,,0825.9,5.00,0.00,24.5,23.5,00.0,33.2,26.6,18.3,0000.0,0007.92,0002.59,0002.29
2022-10-27 21:18:00,,0826.0,5.00,0.00,24.5,23.5,00.0,33.2,26.6,18.3,0000.0,0007.92,0002.59,0002.30
2022-10-27 21:19:00,,0826.0,5.00,0.00,24.6,23.5,00.0,33.2,26.6,18.3,0000.0,0008.01,0002.56,0002.29
2022-10-27 21:20:00,,0826.0,5.01,0.00,24.6,23.5,00.0,33.2,26.6,18.2,0000.0,0007.68,0002.56,0002.29
2022-10-27 21:21:00,,0826.0,5.00,0.00,24.6,23.6,00.0,33.2,26.6,18.4,0000.0,0006.91,0002.57,0002.29
2022-10-27 21:22:00,,0826.0,5.01,0.00,24.6,23.6,00.0,33.3,26.6,18.2,0000.0,0007.40,0002.56,0002.28
2022-10-27 21:23:00,,0826.0,5.00,0.00,24.6,23.6,00.0,33.3,26.7,18.0,0000.0,0007.08,0002.53,0002.26
2022-10-27 21:24:00,,0826.1,5.00,0.00,24.7,23.6,00.0,33.3,26.7,18.1,0000.0,0006.73,0002.51,0002.25
2022-10-27 21:25:00,,0826.1,4.99,0.00,24.7,23.6,00.0,33.3,26.7,17.9,0000.0,0006.43,0002.51,0002.25
2022-10-27 21:26:00,,0826.0,5.00,0.00,24.7,23.6,00.0,33.3,26.7,18.1,0000.0,0005.61,0002.52,0002.26
2022-10-27 21:27:00,,0826.1,5.00,0.00,24.7,23.6,00.0,33.3,26.7,17.8,0000.0,0005.62,0002.52,0002.25
2022-10-27 21:28:00,,0826.1,5.00,0.00,24.7,23.6,00.0,33.4,26.7,17.8,0000.0,0005.92,0002.53,0002.25
2022-10-27 21:29:00,,0826.0,4.99,0.00,24.7,23.7,00.0,33.4,26.7,18.0,0000.0,0005.86,0002.48,0002.23
2022-10-27 21:30:00,,0826.1,5.00,0.00,24.8,23.7,00.0,33.4,26.7,17.7,0000.0,0005.13,0002.50,0002.25
2022-10-27 21:31:00,,0826.1,5.00,0.00,24.8,23.7,00.0,33.4,26.8,17.6,0000.0,0004.93,0002.50,0002.25
2022-10-27 21:32:00,,0826.2,5.01,0.00,24.8,23.7,00.0,33.4,26.8,17.7,0000.0,0004.77,0002.51,0002.27
2022-10-27 21:33:00,,0826.2,5.00,0.00,24.8,23.7,00.0,33.4,26.8,17.6,0000.0,0003.68,0002.54,0002.29
2022-10-27 21:34:00,,0826.2,4.98,0.00,24.8,23.7,00.0,33.5,26.8,17.7,0000.0,0003.75,0002.57,0002.30
2022-10-27 21:35:00,,0826.2,5.01,0.00,24.8,23.7,00.0,33.5,26.8,18.1,0000.0,0003.83,0002.60,0002.32
2022-10-27 21:36:00,,0826.2,5.02,0.00,24.8,23.8,00.0,33.5,26.9,17.9,0000.0,0003.91,0002.62,0002.31
2022-10-27 21:37:00,,0826.2,5.00,0.00,24.9,23.8,00.0,33.5,26.9,17.8,0000.0,0005.02,0002.68,0002.31
2022-10-27 21:38:00,,0826.2,4.98,0.00,24.9,23.8,00.0,33.5,26.9,17.3,0000.0,0005.37,0002.68,0002.30
2022-10-27 21:39:00,,0826.2,5.00,0.00,24.9,23.8,00.0,33.5,26.9,17.6,0000.0,0005.05,0002.67,0002.29
2022-10-27 21:40:00,,0826.2,5.00,0.00,24.9,23.8,00.0,33.6,26.9,17.1,0000.0,0005.07,0002.69,0002.29
2022-10-27 21:41:00,,0826.2,5.00,0.00,24.9,23.8,00.0,33.6,26.9,17.2,0000.0,0005.13,0002.71,0002.28
2022-10-27 21:42:00,,0826.2,5.00,0.00,24.9,23.8,00.0,33.6,27.0,17.0,0000.0,0005.41,0002.72,0002.27
2022-10-27 21:43:00,,0826.2,5.01,0.00,25.0,23.8,00.0,33.6,27.0,16.9,0000.0,0005.94,0002.73,0002.26
2022-10-27 21:44:00,,0826.1,5.00,0.00,25.0,23.8,00.0,33.6,26.9,17.0,0000.0,0005.88,0002.71,0002.25
2022-10-27 21:45:00,,0826.2,4.99,0.00,25.0,23.8,00.0,33.6,27.0,17.0,0000.0,0005.87,0002.73,0002.25
2022-10-27 21:46:00,,0826.2,5.00,0.00,25.0,23.8,00.0,33.6,27.0,17.0,0000.0,0005.82,0002.69,0002.22
2022-10-27 21:47:00,,0826.2,5.00,0.00,25.0,23.8,00.0,33.7,27.0,17.2,0000.0,0005.84,0002.68,0002.21
2022-10-27 21:48:00,,0826.2,4.99,0.00,25.0,23.8,00.0,33.7,27.0,17.3,0000.0,0004.92,0002.63,0002.21
2022-10-27 21:49:00,,0826.2,5.00,0.00,25.0,23.8,00.0,33.7,27.0,17.1,0000.0,0004.56,0002.64,0002.21
2022-10-27 21:50:00,,0826.2,5.00,0.00,25.0,23.8,00.0,33.7,27.0,16.6,0000.0,0004.63,0002.63,0002.20
2022-10-27 21:51:00,,0826.2,5.00,0.00,25.0,23.9,00.0,33.7,27.0,16.7,0000.0,0004.58,0002.61,0002.19
2022-10-27 21:52:00,,0826.2,5.00,0.00,25.1,23.9,00.0,33.7,27.0,16.8,0000.0,0004.46,0002.56,0002.17
2022-10-27 21:53:00,,0826.2,5.00,0.00,25.1,23.9,00.0,33.7,27.1,16.8,0000.0,0004.81,0002.49,0002.14
2022-10-27 21:54:00,,0826.2,5.00,0.00,25.1,23.9,00.0,33.8,27.1,17.1,0000.0,0005.05,0002.46,0002.12
2022-10-27 21:55:00,,0826.2,5.00,0.00,25.1,23.9,00.0,33.8,27.1,17.1,0000.0,0004.94,0002.48,0002.10
2022-10-27 21:56:00,,0826.2,5.00,0.00,25.1,23.9,00.0,33.8,27.1,17.3,0000.0,0004.97,0002.46,0002.09
2022-10-27 21:57:00,,0826.2,5.00,0.00,25.1,23.9,00.0,33.8,27.1,17.3,0000.0,0004.92,0002.45,0002.09
2022-10-27 21:58:00,,0826.2,5.00,0.00,25.1,23.9,00.0,33.8,27.1,17.0,0000.0,0004.87,0002.45,0002.09
2022-10-27 21:59:00,,0826.3,5.01,0.00,25.1,23.9,00.0,33.8,27.1,16.7,0000.0,0004.94,0002.46,0002.08
